Time,TemperatureF,DewpointF,PressureIn,WindDirection,WindDirectionDegrees,WindSpeedMPH,WindSpeedGustMPH,Humidity,HourlyPrecipIn,Conditions,Clouds,dailyrainin,SoftwareType,DateUTC
2017-06-27 00:03:00,50.3,46.6,30.11,South,180,0.0,0.0,87,0.00,CLR,,0.00,WeatherDisplay:10.37,2017-06-27 05:03:00,
2017-06-27 00:08:00,50.1,46.4,30.11,South,180,0.0,0.0,87,0.00,CLR,,0.00,WeatherDisplay:10.37,2017-06-27 05:08:00,
2017-06-27 00:13:00,49.8,45.8,30.11,South,180,0.0,0.0,86,0.00,CLR,,0.00,WeatherDisplay:10.37,2017-06-27 05:13:00,
2017-06-27 00:18:00,49.4,45.4,30.11,South,180,0.0,0.0,86,0.00,CLR,,0.00,WeatherDisplay:10.37,2017-06-27 05:18:00,
2017-06-27 00:23:00,49.4,45.4,30.11,South,180,0.0,0.0,86,0.00,CLR,,0.00,WeatherDisplay:10.37,2017-06-27 05:23:00,
2017-06-27 00:28:00,49.4,46.0,30.11,South,181,0.0,0.0,88,0.00,CLR,,0.00,WeatherDisplay:10.37,2017-06-27 05:28:00,
2017-06-27 00:33:00,49.4,46.0,30.12,South,181,0.0,0.0,88,0.00,CLR,,0.00,WeatherDisplay:10.37,2017-06-27 05:33:00,
2017-06-27 00:39:00,49.2,45.5,30.12,South,180,0.0,0.0,87,0.00,CLR,,0.00,WeatherDisplay:10.37,2017-06-27 05:39:00,
2017-06-27 00:44:00,49.1,45.4,30.12,South,180,0.0,0.0,87,0.00,CLR,,0.00,WeatherDisplay:10.37,2017-06-27 05:44:00,
2017-06-27 00:49:00,48.9,45.5,30.12,South,180,0.0,0.0,88,0.00,CLR,,0.00,WeatherDisplay:10.37,2017-06-27 05:49:00,
2017-06-27 00:54:00,48.7,45.6,30.11,South,180,0.0,0.0,89,0.00,CLR,,0.00,WeatherDisplay:10.37,2017-06-27 05:54:00,
2017-06-27 00:59:00,48.5,44.8,30.11,South,180,0.0,0.0,87,0.00,CLR,,0.00,WeatherDisplay:10.37,2017-06-27 05:59:00,
2017-06-27 01:04:00,48.5,44.8,30.11,South,176,0.0,0.0,87,0.00,CLR,,0.00,WeatherDisplay:10.37,2017-06-27 06:04:00,
2017-06-27 01:09:00,48.5,44.8,30.11,South,177,0.0,0.0,87,0.00,CLR,,0.00,WeatherDisplay:10.37,2017-06-27 06:09:00,
2017-06-27 01:14:00,48.3,44.6,30.11,South,177,0.0,0.0,87,0.00,CLR,,0.00,WeatherDisplay:10.37,2017-06-27 06:14:00,
2017-06-27 01:19:00,48.2,44.6,30.10,South,177,0.0,0.0,87,0.00,CLR,,0.00,WeatherDisplay:10.37,2017-06-27 06:19:00,
2017-06-27 01:24:00,48.2,44.9,30.10,South,180,0.0,0.0,88,0.00,CLR,,0.00,WeatherDisplay:10.37,2017-06-27 06:24:00,
2017-06-27 01:29:00,48.2,45.4,30.11,South,180,0.0,0.0,90,0.00,CLR,,0.00,WeatherDisplay:10.37,2017-06-27 06:29:00,
2017-06-27 01:34:00,48.2,45.4,30.11,South,180,0.0,0.0,90,0.00,CLR,,0.00,WeatherDisplay:10.37,2017-06-27 06:34:00,
2017-06-27 01:39:00,47.8,45.0,30.11,South,179,0.0,0.0,90,0.00,CLR,,0.00,WeatherDisplay:10.37,2017-06-27 06:39:00,
2017-06-27 01:44:00,47.6,44.6,30.11,South,173,0.0,0.0,89,0.00,CLR,,0.00,WeatherDisplay:10.37,2017-06-27 06:44:00,
2017-06-27 01:49:00,47.6,44.9,30.11,South,175,0.0,0.0,90,0.00,CLR,,0.00,WeatherDisplay:10.37,2017-06-27 06:49:00,
2017-06-27 01:54:00,47.6,44.9,30.11,South,180,0.0,0.0,90,0.00,CLR,,0.00,WeatherDisplay:10.37,2017-06-27 06:54:00,
2017-06-27 01:59:00,47.6,44.9,30.11,South,180,0.0,0.0,90,0.00,CLR,,0.00,WeatherDisplay:10.37,2017-06-27 06:59:00,
2017-06-27 02:02:00,47.4,44.4,30.11,South,180,0.0,0.0,89,0.00,CLR,,0.00,WeatherDisplay:10.37,2017-06-27 07:02:00,
2017-06-27 02:07:00,47.4,44.7,30.11,South,180,0.0,0.0,90,0.00,CLR,,0.00,WeatherDisplay:10.37,2017-06-27 07:07:00,
2017-06-27 02:12:00,47.3,44.6,30.11,South,180,0.0,0.0,90,0.00,CLR,,0.00,WeatherDisplay:10.37,2017-06-27 07:12:00,
2017-06-27 02:18:00,47.1,44.1,30.10,South,180,0.0,0.0,89,0.00,CLR,,0.00,WeatherDisplay:10.37,2017-06-27 07:18:00,
2017-06-27 02:23:00,47.1,44.1,30.10,South,180,0.0,0.0,89,0.00,CLR,,0.00,WeatherDisplay:10.37,2017-06-27 07:23:00,
2017-06-27 02:28:00,46.9,43.9,30.10,South,180,0.0,0.0,89,0.00,CLR,,0.00,WeatherDisplay:10.37,2017-06-27 07:28:00,
2017-06-27 02:33:00,46.9,43.9,30.10,South,180,0.0,0.0,89,0.00,CLR,,0.00,WeatherDisplay:10.37,2017-06-27 07:33:00,
2017-06-27 02:38:00,46.9,44.2,30.10,South,180,0.0,0.0,90,0.00,CLR,,0.00,WeatherDisplay:10.37,2017-06-27 07:38:00,
2017-06-27 02:43:00,46.7,44.0,30.10,South,180,0.0,0.0,90,0.00,CLR,,0.00,WeatherDisplay:10.37,2017-06-27 07:43:00,
2017-06-27 02:48:00,46.5,43.5,30.10,South,180,0.0,0.0,89,0.00,CLR,,0.00,WeatherDisplay:10.37,2017-06-27 07:48:00,
2017-06-27 02:53:00,46.5,43.5,30.10,South,176,0.0,0.0,89,0.00,CLR,,0.00,WeatherDisplay:10.37,2017-06-27 07:53:00,
2017-06-27 02:59:00,46.4,43.4,30.10,South,171,0.0,0.0,89,0.00,CLR,,0.00,WeatherDisplay:10.37,2017-06-27 07:59:00,
2017-06-27 03:04:00,46.4,43.4,30.10,SSE,164,0.0,0.0,89,0.00,CLR,,0.00,WeatherDisplay:10.37,2017-06-27 08:04:00,
2017-06-27 03:09:00,46.4,43.4,30.10,South,171,0.0,0.0,89,0.00,CLR,,0.00,WeatherDisplay:10.37,2017-06-27 08:09:00,
2017-06-27 03:14:00,46.4,43.4,30.10,South,180,0.0,0.0,89,0.00,CLR,,0.00,WeatherDisplay:10.37,2017-06-27 08:14:00,
2017-06-27 03:19:00,46.4,43.4,30.10,South,180,0.0,0.0,89,0.00,CLR,,0.00,WeatherDisplay:10.37,2017-06-27 08:19:00,
2017-06-27 03:24:00,46.2,43.2,30.10,South,180,0.0,0.0,89,0.00,CLR,,0.00,WeatherDisplay:10.37,2017-06-27 08:24:00,
2017-06-27 03:29:00,46.0,43.3,30.10,South,180,0.0,0.0,90,0.00,CLR,,0.00,WeatherDisplay:10.37,2017-06-27 08:29:00,
2017-06-27 03:34:00,45.8,42.7,30.10,South,180,0.0,0.0,89,0.00,CLR,,0.00,WeatherDisplay:10.37,2017-06-27 08:34:00,
2017-06-27 03:39:00,45.6,42.6,30.10,South,180,0.0,0.0,89,0.00,CLR,,0.00,WeatherDisplay:10.37,2017-06-27 08:39:00,
2017-06-27 03:44:00,45.6,42.9,30.10,South,180,0.0,0.0,90,0.00,CLR,,0.00,WeatherDisplay:10.37,2017-06-27 08:44:00,
2017-06-27 03:49:00,45.5,42.5,30.10,South,180,0.0,0.0,89,0.00,CLR,,0.00,WeatherDisplay:10.37,2017-06-27 08:49:00,
2017-06-27 03:54:00,45.3,42.3,30.10,South,180,0.0,0.0,89,0.00,CLR,,0.00,WeatherDisplay:10.37,2017-06-27 08:54:00,
2017-06-27 03:59:00,45.3,42.3,30.10,South,180,0.0,0.0,89,0.00,CLR,,0.00,WeatherDisplay:10.37,2017-06-27 08:59:00,
2017-06-27 04:04:00,45.1,42.4,30.10,South,179,0.0,0.0,90,0.00,CLR,,0.00,WeatherDisplay:10.37,2017-06-27 09:04:00,
2017-06-27 04:09:00,45.1,42.7,30.09,South,175,0.0,0.0,91,0.00,CLR,,0.00,WeatherDisplay:10.37,2017-06-27 09:09:00,
2017-06-27 04:14:00,44.9,42.2,30.09,South,171,0.0,0.0,90,0.00,CLR,,0.00,WeatherDisplay:10.37,2017-06-27 09:14:00,
2017-06-27 04:19:00,44.9,42.2,30.10,South,175,0.0,0.0,90,0.00,CLR,,0.00,WeatherDisplay:10.37,2017-06-27 09:19:00,
2017-06-27 04:24:00,44.9,42.2,30.10,South,179,0.0,0.0,90,0.00,CLR,,0.00,WeatherDisplay:10.37,2017-06-27 09:24:00,
2017-06-27 04:29:00,44.7,42.0,30.09,South,180,0.0,0.0,90,0.00,CLR,,0.00,WeatherDisplay:10.37,2017-06-27 09:29:00,
2017-06-27 04:35:00,44.7,42.3,30.09,South,180,0.0,0.0,91,0.00,CLR,,0.00,WeatherDisplay:10.37,2017-06-27 09:35:00,
2017-06-27 04:40:00,44.6,41.9,30.09,South,180,0.0,0.0,90,0.00,CLR,,0.00,WeatherDisplay:10.37,2017-06-27 09:40:00,
2017-06-27 04:41:00,44.6,41.9,30.10,South,180,0.0,0.0,90,0.00,CLR,,0.00,WeatherDisplay:10.37,2017-06-27 09:41:00,
2017-06-27 04:46:00,44.6,41.9,30.10,South,180,0.0,0.0,90,0.00,CLR,,0.00,WeatherDisplay:10.37,2017-06-27 09:46:00,
2017-06-27 04:52:00,44.4,41.7,30.10,South,180,0.0,0.0,90,0.00,CLR,,0.00,WeatherDisplay:10.37,2017-06-27 09:52:00,
2017-06-27 04:55:00,44.4,41.4,30.10,South,180,0.0,0.0,89,0.00,CLR,,0.00,WeatherDisplay:10.37,2017-06-27 09:55:00,
2017-06-27 05:00:00,44.2,41.2,30.10,South,180,0.0,0.0,89,0.00,CLR,,0.00,WeatherDisplay:10.37,2017-06-27 10:00:00,
2017-06-27 05:05:00,43.8,40.8,30.10,South,169,0.0,0.0,89,0.00,CLR,,0.00,WeatherDisplay:10.37,2017-06-27 10:05:00,
2017-06-27 05:11:00,43.8,40.8,30.10,South,170,0.0,0.0,89,0.00,CLR,,0.00,WeatherDisplay:10.37,2017-06-27 10:11:00,
2017-06-27 05:16:00,44.0,41.3,30.10,South,180,0.0,0.0,90,0.00,CLR,,0.00,WeatherDisplay:10.37,2017-06-27 10:16:00,
2017-06-27 05:21:00,43.8,41.1,30.10,South,174,0.0,0.0,90,0.00,CLR,,0.00,WeatherDisplay:10.37,2017-06-27 10:21:00,
2017-06-27 05:26:00,43.8,41.1,30.10,South,173,0.0,0.0,90,0.00,CLR,,0.00,WeatherDisplay:10.37,2017-06-27 10:26:00,
2017-06-27 05:31:00,43.8,41.1,30.10,South,179,0.0,0.0,90,0.00,CLR,,0.00,WeatherDisplay:10.37,2017-06-27 10:31:00,
2017-06-27 05:36:00,43.8,41.1,30.10,South,175,0.0,0.0,90,0.00,CLR,,0.00,WeatherDisplay:10.37,2017-06-27 10:36:00,
2017-06-27 05:42:00,44.2,42.1,30.09,South,176,0.0,0.0,92,0.00,CLR,,0.00,WeatherDisplay:10.37,2017-06-27 10:42:00,
2017-06-27 05:47:00,44.0,41.6,30.09,South,180,0.0,0.0,91,0.00,CLR,,0.00,WeatherDisplay:10.37,2017-06-27 10:47:00,
2017-06-27 05:52:00,44.0,41.6,30.09,South,180,0.0,0.0,91,0.00,CLR,,0.00,WeatherDisplay:10.37,2017-06-27 10:52:00,
2017-06-27 05:57:00,43.8,41.4,30.09,South,175,0.0,0.0,91,0.00,CLR,,0.00,WeatherDisplay:10.37,2017-06-27 10:57:00,
2017-06-27 06:02:00,43.8,41.1,30.09,South,171,0.0,0.0,90,0.00,CLR,,0.00,WeatherDisplay:10.37,2017-06-27 11:02:00,
2017-06-27 06:07:00,43.8,41.1,30.10,SSE,165,0.0,0.0,90,0.00,CLR,,0.00,WeatherDisplay:10.37,2017-06-27 11:07:00,
2017-06-27 06:12:00,44.2,41.8,30.10,SSE,167,0.0,0.0,91,0.00,CLR,,0.00,WeatherDisplay:10.37,2017-06-27 11:12:00,
2017-06-27 06:18:00,44.2,41.8,30.10,South,170,0.0,0.0,91,0.00,CLR,,0.00,WeatherDisplay:10.37,2017-06-27 11:18:00,
2017-06-27 06:23:00,44.6,42.2,30.10,South,169,0.0,0.0,91,0.00,CLR,,0.00,WeatherDisplay:10.37,2017-06-27 11:23:00,
2017-06-27 06:28:00,44.9,42.5,30.10,South,179,0.0,0.0,91,0.00,CLR,,0.00,WeatherDisplay:10.37,2017-06-27 11:28:00,
2017-06-27 06:33:00,44.9,42.5,30.10,South,181,0.0,0.0,91,0.00,CLR,,0.00,WeatherDisplay:10.37,2017-06-27 11:33:00,
2017-06-27 06:38:00,45.5,43.4,30.10,South,181,0.0,0.0,92,0.00,CLR,,0.00,WeatherDisplay:10.37,2017-06-27 11:38:00,
2017-06-27 06:43:00,45.5,43.4,30.10,South,180,0.0,0.0,92,0.00,CLR,,0.00,WeatherDisplay:10.37,2017-06-27 11:43:00,
2017-06-27 06:48:00,45.8,43.6,30.10,South,181,0.4,1.2,92,0.00,CLR,,0.00,WeatherDisplay:10.37,2017-06-27 11:48:00,
2017-06-27 06:54:00,46.4,44.5,30.10,South,181,0.0,0.0,93,0.00,CLR,,0.00,WeatherDisplay:10.37,2017-06-27 11:54:00,
2017-06-27 06:59:00,46.5,44.6,30.10,South,177,0.0,0.0,93,0.00,CLR,,0.00,WeatherDisplay:10.37,2017-06-27 11:59:00,
2017-06-27 07:04:00,46.5,44.3,30.10,South,174,0.0,0.0,92,0.00,CLR,,0.00,WeatherDisplay:10.37,2017-06-27 12:04:00,
2017-06-27 07:09:00,47.1,44.9,30.10,South,175,0.0,0.0,92,0.00,CLR,,0.00,WeatherDisplay:10.37,2017-06-27 12:09:00,
2017-06-27 07:14:00,47.8,45.6,30.10,SSE,167,0.0,0.0,92,0.00,CLR,,0.00,WeatherDisplay:10.37,2017-06-27 12:14:00,
2017-06-27 07:19:00,48.5,46.3,30.10,South,169,0.0,0.0,92,0.00,CLR,,0.00,WeatherDisplay:10.37,2017-06-27 12:19:00,
2017-06-27 07:24:00,49.2,46.9,30.10,South,181,0.0,0.0,92,0.00,CLR,,0.00,WeatherDisplay:10.37,2017-06-27 12:24:00,
2017-06-27 07:29:00,49.8,47.6,30.10,South,179,0.0,0.0,92,0.00,CLR,,0.00,WeatherDisplay:10.37,2017-06-27 12:29:00,
2017-06-27 07:34:00,50.7,48.5,30.10,South,175,0.0,1.0,92,0.00,CLR,,0.00,WeatherDisplay:10.37,2017-06-27 12:34:00,
2017-06-27 07:39:00,51.8,49.3,30.10,South,181,1.0,2.0,91,0.00,CLR,,0.00,WeatherDisplay:10.37,2017-06-27 12:39:00,
2017-06-27 07:44:00,53.2,50.0,30.10,South,182,0.0,1.0,89,0.00,CLR,,0.00,WeatherDisplay:10.37,2017-06-27 12:44:00,
2017-06-27 07:46:00,53.4,50.3,30.10,South,182,0.0,1.2,89,0.00,CLR,,0.00,WeatherDisplay:10.37,2017-06-27 12:46:00,
2017-06-27 07:51:00,57.3,50.9,30.10,SW,218,1.9,2.3,79,0.00,CLR,,0.00,WeatherDisplay:10.37,2017-06-27 12:51:00,
2017-06-27 07:56:00,59.3,51.4,30.10,SSW,209,0.0,0.0,75,0.00,CLR,,0.00,WeatherDisplay:10.37,2017-06-27 12:56:00,
2017-06-27 08:01:00,59.9,51.6,30.10,South,182,0.0,0.0,74,0.00,CLR,,0.00,WeatherDisplay:10.37,2017-06-27 13:01:00,
2017-06-27 08:06:00,60.6,51.2,30.10,South,184,0.0,0.0,71,0.00,CLR,,0.00,WeatherDisplay:10.37,2017-06-27 13:06:00,
2017-06-27 08:11:00,61.5,52.0,30.10,South,182,0.0,0.0,71,0.00,CLR,,0.00,WeatherDisplay:10.37,2017-06-27 13:11:00,
2017-06-27 08:16:00,63.5,52.0,30.10,SSE,162,0.0,0.0,66,0.00,CLR,,0.00,WeatherDisplay:10.37,2017-06-27 13:16:00,
2017-06-27 08:21:00,63.6,52.5,30.10,SSE,158,0.0,0.0,67,0.00,CLR,,0.00,WeatherDisplay:10.37,2017-06-27 13:21:00,
2017-06-27 08:27:00,65.4,53.8,30.10,SSE,161,2.4,2.4,66,0.00,CLR,,0.00,WeatherDisplay:10.37,2017-06-27 13:27:00,
2017-06-27 08:32:00,65.1,53.5,30.10,SSE,161,0.0,0.0,66,0.00,CLR,,0.00,WeatherDisplay:10.37,2017-06-27 13:32:00,
2017-06-27 08:37:00,66.3,51.6,30.10,South,169,4.8,5.9,59,0.00,CLR,,0.00,WeatherDisplay:10.37,2017-06-27 13:37:00,
2017-06-27 08:42:00,66.2,50.5,30.10,South,184,3.7,3.7,57,0.00,CLR,,0.00,WeatherDisplay:10.37,2017-06-27 13:42:00,
2017-06-27 08:47:00,66.7,49.6,30.10,South,177,8.2,8.2,54,0.00,CLR,,0.00,WeatherDisplay:10.37,2017-06-27 13:47:00,
2017-06-27 08:52:00,67.1,48.9,30.10,South,178,7.0,7.0,52,0.00,CLR,,0.00,WeatherDisplay:10.37,2017-06-27 13:52:00,
2017-06-27 08:57:00,67.4,49.7,30.09,South,191,3.5,5.8,53,0.00,CLR,,0.00,WeatherDisplay:10.37,2017-06-27 13:57:00,
2017-06-27 09:03:00,68.0,49.2,30.09,SSW,206,6.3,8.1,51,0.00,CLR,,0.00,WeatherDisplay:10.37,2017-06-27 14:03:00,
2017-06-27 09:08:00,68.1,49.8,30.09,SSW,204,4.1,4.1,52,0.00,CLR,,0.00,WeatherDisplay:10.37,2017-06-27 14:08:00,
2017-06-27 09:13:00,68.9,50.6,30.09,South,182,2.6,6.9,52,0.00,CLR,,0.00,WeatherDisplay:10.37,2017-06-27 14:13:00,
2017-06-27 09:18:00,69.6,49.6,30.08,South,182,2.7,2.7,49,0.00,CLR,,0.00,WeatherDisplay:10.37,2017-06-27 14:18:00,
2017-06-27 09:23:00,69.8,49.8,30.08,SSW,201,7.5,9.2,49,0.00,CLR,,0.00,WeatherDisplay:10.37,2017-06-27 14:23:00,
2017-06-27 09:28:00,69.8,49.3,30.08,SSW,199,4.7,4.7,48,0.00,CLR,,0.00,WeatherDisplay:10.37,2017-06-27 14:28:00,
2017-06-27 09:33:00,69.9,48.2,30.08,SSW,194,6.0,6.0,46,0.00,CLR,,0.00,WeatherDisplay:10.37,2017-06-27 14:33:00,
2017-06-27 09:38:00,70.5,50.5,30.08,SSW,211,4.1,4.6,49,0.00,CLR,,0.00,WeatherDisplay:10.37,2017-06-27 14:38:00,
2017-06-27 09:44:00,70.7,49.5,30.08,SSW,212,2.8,2.8,47,0.00,CLR,,0.00,WeatherDisplay:10.37,2017-06-27 14:44:00,
2017-06-27 09:49:00,71.7,50.4,30.08,SSW,197,7.1,7.2,47,0.00,CLR,,0.00,WeatherDisplay:10.37,2017-06-27 14:49:00,
2017-06-27 09:54:00,71.6,51.5,30.07,SSW,202,3.7,4.6,49,0.00,CLR,,0.00,WeatherDisplay:10.37,2017-06-27 14:54:00,
2017-06-27 09:59:00,70.8,50.2,30.07,SSW,211,5.3,7.2,48,0.00,CLR,,0.00,WeatherDisplay:10.37,2017-06-27 14:59:00,
2017-06-27 10:04:00,71.4,49.6,30.07,SSW,202,3.4,4.6,46,0.00,CLR,,0.00,WeatherDisplay:10.37,2017-06-27 15:04:00,
2017-06-27 10:09:00,71.6,50.3,30.07,SSW,193,5.3,5.9,47,0.00,CLR,,0.00,WeatherDisplay:10.37,2017-06-27 15:09:00,
2017-06-27 10:14:00,71.8,49.3,30.07,SW,222,5.0,7.0,45,0.00,CLR,,0.00,WeatherDisplay:10.37,2017-06-27 15:14:00,
2017-06-27 10:19:00,72.2,49.1,30.06,SW,225,6.0,9.0,44,0.00,CLR,,0.00,WeatherDisplay:10.37,2017-06-27 15:19:00,
2017-06-27 10:24:00,72.5,48.1,30.06,SSW,209,4.9,6.9,42,0.00,CLR,,0.00,WeatherDisplay:10.37,2017-06-27 15:24:00,
2017-06-27 10:29:00,73.2,47.5,30.06,SSW,206,6.0,7.0,40,0.00,CLR,,0.00,WeatherDisplay:10.37,2017-06-27 15:29:00,
2017-06-27 10:34:00,73.5,48.4,30.06,SSW,205,7.0,9.0,41,0.00,CLR,,0.00,WeatherDisplay:10.37,2017-06-27 15:34:00,
2017-06-27 10:39:00,72.6,47.6,30.06,SSW,203,6.0,10.0,41,0.00,CLR,,0.00,WeatherDisplay:10.37,2017-06-27 15:39:00,
2017-06-27 10:44:00,72.6,48.2,30.06,SSW,198,3.0,8.0,42,0.00,CLR,,0.00,WeatherDisplay:10.37,2017-06-27 15:44:00,
2017-06-27 10:49:00,73.5,49.6,30.06,South,191,5.0,8.0,43,0.00,CLR,,0.00,WeatherDisplay:10.37,2017-06-27 15:49:00,
2017-06-27 10:55:00,73.4,47.0,30.05,SSW,199,3.8,6.9,39,0.00,CLR,,0.00,WeatherDisplay:10.37,2017-06-27 15:55:00,
2017-06-27 11:00:00,73.9,48.7,30.05,SSW,203,4.1,5.3,41,0.00,CLR,,0.00,WeatherDisplay:10.37,2017-06-27 16:00:00,
2017-06-27 11:05:00,73.7,47.9,30.04,SSW,193,4.0,4.0,40,0.00,CLR,,0.00,WeatherDisplay:10.37,2017-06-27 16:05:00,
2017-06-27 11:10:00,74.1,46.9,30.04,SSW,199,7.9,10.4,38,0.00,CLR,,0.00,WeatherDisplay:10.37,2017-06-27 16:10:00,
2017-06-27 11:15:00,74.4,47.2,30.04,SSW,209,7.3,11.5,38,0.00,CLR,,0.00,WeatherDisplay:10.37,2017-06-27 16:15:00,
2017-06-27 11:20:00,74.1,47.6,30.03,SSW,212,5.7,5.8,39,0.00,CLR,,0.00,WeatherDisplay:10.37,2017-06-27 16:20:00,
2017-06-27 11:26:00,74.3,47.8,30.03,SSW,202,7.3,7.3,39,0.00,CLR,,0.00,WeatherDisplay:10.37,2017-06-27 16:26:00,
2017-06-27 11:31:00,73.9,48.7,30.03,South,191,6.3,6.3,41,0.00,CLR,,0.00,WeatherDisplay:10.37,2017-06-27 16:31:00,
2017-06-27 11:36:00,74.4,48.5,30.03,SSW,207,5.3,5.8,40,0.00,CLR,,0.00,WeatherDisplay:10.37,2017-06-27 16:36:00,
2017-06-27 11:41:00,73.5,47.1,30.03,SSW,206,7.4,12.7,39,0.00,CLR,,0.00,WeatherDisplay:10.37,2017-06-27 16:41:00,
2017-06-27 11:46:00,74.3,48.4,30.03,South,191,4.7,4.7,40,0.00,CLR,,0.00,WeatherDisplay:10.37,2017-06-27 16:46:00,
2017-06-27 11:51:00,75.2,48.6,30.03,SSW,200,6.5,12.7,39,0.00,CLR,,0.00,WeatherDisplay:10.37,2017-06-27 16:51:00,
2017-06-27 11:56:00,75.0,47.7,30.03,SSW,199,7.9,8.1,38,0.00,CLR,,0.00,WeatherDisplay:10.37,2017-06-27 16:56:00,
2017-06-27 12:02:00,75.2,47.9,30.03,SSW,211,6.5,9.2,38,0.00,CLR,,0.00,WeatherDisplay:10.37,2017-06-27 17:02:00,
2017-06-27 12:07:00,75.0,47.0,30.02,SW,214,8.3,11.5,37,0.00,CLR,,0.00,WeatherDisplay:10.37,2017-06-27 17:07:00,
2017-06-27 12:12:00,75.7,49.0,30.02,SSW,207,9.3,9.3,39,0.00,CLR,,0.00,WeatherDisplay:10.37,2017-06-27 17:12:00,
2017-06-27 12:17:00,75.5,48.1,30.02,SSW,199,8.1,8.1,38,0.00,CLR,,0.00,WeatherDisplay:10.37,2017-06-27 17:17:00,
2017-06-27 12:22:00,75.9,51.2,30.02,SSW,213,6.6,6.6,42,0.00,CLR,,0.00,WeatherDisplay:10.37,2017-06-27 17:22:00,
2017-06-27 12:27:00,75.2,47.9,30.02,SSW,213,7.9,7.9,38,0.00,CLR,,0.00,WeatherDisplay:10.37,2017-06-27 17:27:00,
2017-06-27 12:33:00,75.3,47.3,30.01,SSW,212,7.0,7.0,37,0.00,CLR,,0.00,WeatherDisplay:10.37,2017-06-27 17:33:00,
2017-06-27 12:38:00,75.9,48.5,30.01,SSW,203,4.9,6.9,38,0.00,CLR,,0.00,WeatherDisplay:10.37,2017-06-27 17:38:00,
2017-06-27 12:43:00,75.7,47.6,30.01,SSW,194,4.1,9.1,37,0.00,CLR,,0.00,WeatherDisplay:10.37,2017-06-27 17:43:00,
2017-06-27 12:48:00,75.0,47.0,30.01,SSW,201,7.7,7.7,37,0.00,CLR,,0.00,WeatherDisplay:10.37,2017-06-27 17:48:00,
2017-06-27 12:53:00,75.9,48.5,30.00,South,187,9.0,9.2,38,0.00,CLR,,0.00,WeatherDisplay:10.37,2017-06-27 17:53:00,
2017-06-27 12:54:00,75.9,47.8,30.00,SSW,195,7.6,9.2,37,0.00,CLR,,0.00,WeatherDisplay:10.37,2017-06-27 17:54:00,
2017-06-27 12:59:00,75.7,47.6,30.00,SSW,213,8.1,8.1,37,0.00,CLR,,0.00,WeatherDisplay:10.37,2017-06-27 17:59:00,
2017-06-27 13:04:00,75.2,47.9,30.00,SW,225,7.1,11.5,38,0.00,CLR,,0.00,WeatherDisplay:10.37,2017-06-27 18:04:00,
2017-06-27 13:09:00,75.9,48.5,30.00,SW,223,9.7,11.5,38,0.00,CLR,,0.00,WeatherDisplay:10.37,2017-06-27 18:09:00,
2017-06-27 13:14:00,75.7,46.9,30.00,SW,214,6.0,12.0,36,0.00,CLR,,0.00,WeatherDisplay:10.37,2017-06-27 18:14:00,
2017-06-27 13:19:00,76.0,47.8,29.99,SW,228,7.0,9.0,37,0.00,CLR,,0.00,WeatherDisplay:10.37,2017-06-27 18:19:00,
2017-06-27 13:24:00,75.1,47.1,29.99,SW,236,5.0,9.0,37,0.00,CLR,,0.00,WeatherDisplay:10.37,2017-06-27 18:24:00,
2017-06-27 13:29:00,75.9,47.8,29.99,SW,215,7.7,10.4,37,0.00,CLR,,0.00,WeatherDisplay:10.37,2017-06-27 18:29:00,
2017-06-27 13:34:00,75.4,48.0,29.99,SSW,201,5.0,9.0,38,0.00,CLR,,0.00,WeatherDisplay:10.37,2017-06-27 18:34:00,
2017-06-27 13:39:00,74.3,47.1,29.99,SSW,198,3.0,9.0,38,0.00,CLR,,0.00,WeatherDisplay:10.37,2017-06-27 18:39:00,
2017-06-27 13:44:00,75.4,48.1,29.98,SSW,196,3.0,6.0,38,0.00,CLR,,0.00,WeatherDisplay:10.37,2017-06-27 18:44:00,
2017-06-27 13:49:00,76.0,48.5,29.98,South,191,3.0,6.0,38,0.00,CLR,,0.00,WeatherDisplay:10.37,2017-06-27 18:49:00,
2017-06-27 13:54:00,78.0,48.2,29.98,South,174,6.3,6.3,35,0.00,CLR,,0.00,WeatherDisplay:10.37,2017-06-27 18:54:00,
2017-06-27 13:59:00,77.0,46.5,29.98,SW,228,8.0,12.0,34,0.00,CLR,,0.00,WeatherDisplay:10.37,2017-06-27 18:59:00,
2017-06-27 14:04:00,77.0,48.0,29.98,SW,220,6.0,9.0,36,0.00,CLR,,0.00,WeatherDisplay:10.37,2017-06-27 19:04:00,